Location: Gro� Glienicke
(52.4675°N, 13.1079°E)
Time: 07:29:17
(UTC+00:00)

Cosmos 1818 - Pass Details

Date: 06 July 2020
Orbit: 777 x 796 km, 65.0° (Epoch: 04 August)

Event Time Altitude Azimuth Distance (km) Brightness Sun altitude
Rises 20:16:35 0° 218° (SW) 3,273 6.6 -5.8°
Reaches altitude 10° 20:18:59 10° 217° (SW) 2,350 5.9 -6.0°
Maximum altitude 20:24:24 83° 131° (SE) 806 3.6 -6.5°
Drops below altitude 10° 20:29:53 10° 44° (NE) 2,374 6.2 -7.0°
Sets 20:32:19 0° 44° (NE) 3,309 6.9 -7.3°
